Weather History for Broomfield, CO

Change the Weather History Date:

Saturday, January 19, 2013

  Actual Average Record
Temperature  
Mean Temperature 46 °F -  
Max Temperature 59 °F 44 °F 68 °F (1986)
Min Temperature 33 °F 25 °F 4 °F (1985)
Degree Days  
Heating Degree Days 19    
Moisture  
Dew Point -7 °F    
Average Humidity 13    
Maximum Humidity 38    
Minimum Humidity 4    
Precipitation  
Precipitation 0.00 in - - ()
Sea Level Pressure  
Sea Level Pressure 30.15 in    
Wind  
Wind Speed 14 mph (West)    
Max Wind Speed 29 mph    
Max Gust Speed 38 mph    
Visibility 10 miles    
Events      
Averages and records for this station are not official NWS values.
T = Trace of Precipitation, MM = Missing Value Source: NWS Daily Summary

Daily Weather History Graph

Daily Weather History Graph

Search for Another Location

Airport:

Trip Planner

Search our weather history database for the weather conditions in past years. The results will help you decide how hot, cold, wet, or windy it might be!

Date:

Astronomy

Jan. 19, 2013 Rise Set
Actual Time 7:18 AM MST 5:04 PM MST
Civil Twilight 6:48 AM MST 5:34 PM MST
Nautical Twilight 6:15 AM MST 6:07 PM MST
Astronomical Twilight 5:43 AM MST 6:39 PM MST
Moon 11:32 AM MST (1/19) 12:55 AM MST (1/19)
Length of Visible Light 10h 45m
Length of Day
9h 46m
First Quarter, 58% of the Moon is Illuminated
Jan 19
First Quarter
Jan 26
Full
Feb 3
Last Quarter
Feb 10
New
Feb 17
First Quarter

Hourly Weather History & Observations

Time (MST) Temp. Windchill Dew Point Humidity Pressure Visibility Wind Dir Wind Speed Gust Speed Precip Events Conditions
12:15 AM 48.2 °F - -7.6 °F 10% 30.06 in 10.0 mi WNW 28.8 mph 38.0 mph N/A   Clear
12:36 AM 48.2 °F - -7.6 °F 10% 30.07 in 10.0 mi WNW 10.4 mph 18.4 mph N/A   Clear
12:56 AM 46.4 °F - -7.6 °F 10% 30.08 in 10.0 mi Calm Calm - N/A   Clear
1:16 AM 46.4 °F 41.9 °F -7.6 °F 10% 30.10 in 10.0 mi West 9.2 mph - N/A   Clear
1:36 AM 46.4 °F 42.4 °F -7.6 °F 10% 30.11 in 10.0 mi West 8.1 mph 18.4 mph N/A   Clear
1:56 AM 46.4 °F 38.3 °F -7.6 °F 10% 30.09 in 10.0 mi West 23.0 mph 33.4 mph N/A   Clear
2:16 AM 48.2 °F - -7.6 °F 10% 30.09 in 10.0 mi WNW 24.2 mph 33.4 mph N/A   Clear
2:36 AM 48.2 °F - -7.6 °F 10% 30.10 in 10.0 mi West 24.2 mph 32.2 mph N/A   Clear
2:56 AM 46.4 °F 39.5 °F -5.8 °F 11% 30.10 in 10.0 mi West 17.3 mph 26.5 mph N/A   Clear
3:16 AM 44.6 °F 38.1 °F -5.8 °F 12% 30.11 in 10.0 mi West 13.8 mph - N/A   Clear
3:35 AM 42.8 °F 37.0 °F -5.8 °F 13% 30.11 in 10.0 mi WSW 10.4 mph - N/A   Clear
3:56 AM 41.0 °F 34.7 °F -5.8 °F 14% 30.12 in 10.0 mi West 10.4 mph - N/A   Clear
4:16 AM 39.2 °F 32.0 °F -4.0 °F 16% 30.12 in 10.0 mi West 11.5 mph - N/A   Clear
4:36 AM 37.4 °F 29.8 °F -4.0 °F 17% 30.12 in 10.0 mi West 11.5 mph - N/A   Clear
4:56 AM 39.2 °F 33.0 °F -4.0 °F 16% 30.13 in 10.0 mi West 9.2 mph - N/A   Clear
5:50 AM 42.8 °F 35.8 °F -5.8 °F 13% 30.15 in 30.0 mi West 13.8 mph - N/A   Clear
6:47 AM 44.6 °F 36.6 °F -5.8 °F 12% 30.17 in 60.0 mi West 19.6 mph - N/A   Clear
7:47 AM 42.8 °F 37.0 °F -7.6 °F 12% 30.19 in 60.0 mi WNW 10.4 mph - N/A   Clear
8:47 AM 48.2 °F - -7.6 °F 10% 30.21 in 60.0 mi WNW 9.2 mph - N/A   Clear
9:50 AM 46.4 °F 43.5 °F -2.2 °F 13% 30.24 in 60.0 mi SE 5.8 mph - N/A   Clear
10:47 AM 51.8 °F - -5.8 °F 9% 30.23 in 60.0 mi SE 9.2 mph - N/A   Clear
11:55 AM 55.4 °F - -5.8 °F 8% 30.20 in 50.0 mi SE 6.9 mph - N/A   Clear
12:48 PM 57.2 °F - -7.6 °F 7% 30.18 in 60.0 mi SE 4.6 mph - N/A   Partly Cloudy
1:48 PM 57.2 °F - -9.4 °F 6% 30.16 in 60.0 mi SE 5.8 mph - N/A   Partly Cloudy
2:36 PM 59.0 °F - -11.2 °F 5% 30.16 in 60.0 mi SW 8.1 mph - N/A   Partly Cloudy
2:55 PM 59.0 °F - -18.4 °F 4% 30.15 in 60.0 mi West 19.6 mph - N/A   Partly Cloudy
3:47 PM 53.6 °F - -14.8 °F 6% 30.15 in 60.0 mi West 18.4 mph 24.2 mph N/A   Partly Cloudy
4:47 PM 50.0 °F - -13.0 °F 7% 30.18 in 60.0 mi West 9.2 mph - N/A   Partly Cloudy
5:48 PM 50.0 °F - -16.6 °F 6% 30.17 in 30.0 mi West 13.8 mph - N/A   Mostly Cloudy
6:50 PM 46.4 °F 40.4 °F -18.4 °F 6% 30.17 in 30.0 mi WSW 13.8 mph - N/A   Scattered Clouds
7:45 PM 51.8 °F - -20.2 °F 5% 30.19 in 30.0 mi Calm Calm - N/A   Scattered Clouds
8:47 PM 48.2 °F - -13.0 °F 7% 30.18 in 25.0 mi Calm Calm - N/A   Scattered Clouds
9:01 PM 46.4 °F 39.5 °F -9.4 °F 9% 30.17 in 25.0 mi West 17.3 mph - N/A   Scattered Clouds
9:48 PM 46.4 °F 41.9 °F -11.2 °F 9% 30.17 in 25.0 mi NW 9.2 mph - N/A   Scattered Clouds
10:15 PM 42.8 °F 38.6 °F -7.6 °F 12% 30.18 in 10.0 mi North 6.9 mph - N/A   Clear
10:36 PM 35.6 °F 28.6 °F 5.0 °F 28% 30.17 in 10.0 mi North 9.2 mph - N/A   Clear
10:56 PM 33.8 °F 27.7 °F 8.6 °F 35% 30.16 in 10.0 mi North 6.9 mph - N/A   Clear
11:16 PM 33.8 °F 26.4 °F 10.4 °F 38% 30.16 in 10.0 mi NW 9.2 mph - N/A   Clear
11:36 PM 33.8 °F 24.8 °F 10.4 °F 38% 30.15 in 10.0 mi NNW 12.7 mph - N/A   Clear
11:56 PM 33.8 °F 23.9 °F 10.4 °F 38% 30.15 in 10.0 mi NNW 15.0 mph - N/A   Clear